Glens Falls, NY

3:43 PM EST on December 13, 2017 (GMT -0500)
Bennett Memorial

Weather History for KGFL - February, 2014

Change the Weather History Date:

Friday, February 7, 2014

  Actual Average Record
Temperature  
Mean Temperature 6 °F 19 °F  
Max Temperature 24 °F 31 °F 48 °F (1951)
Min Temperature -13 °F 8 °F -26 °F (1993)
Degree Days  
Heating Degree Days 59 46  
Month to date heating degree days 305 323  
Since 1 July heating degree days 4754 4719  
Cooling Degree Days 0 0  
Month to date cooling degree days 0 0  
Year to date cooling degree days 0 0  
Moisture  
Dew Point -2 °F    
Average Humidity 67    
Maximum Humidity 95    
Minimum Humidity 39    
Precipitation  
Precipitation T in 0.07 in 0.93 in (1983)
Month to date precipitation 0.49 0.54  
Year to date precipitation 2.42 3.40  
Sea Level Pressure  
Sea Level Pressure 30.25 in    
Wind  
Wind Speed 6 mph (SSW)    
Max Wind Speed 18 mph    
Max Gust Speed 26 mph    
Visibility 10 miles    
Events      
T = Trace of Precipitation, MM = Missing Value Source: NWS Daily Summary

Daily Weather History Graph

Daily Weather History Graph

Search for Another Location

Airport or City:

Trip Planner

Search our weather history database for the weather conditions in past years. The results will help you decide how hot, cold, wet, or windy it might be!

Date:

Astronomy

Feb. 07, 2014 Rise Set
Actual Time 7:03 AM EST 5:14 PM EST
Civil Twilight 6:33 AM EST 5:44 PM EST
Nautical Twilight 5:59 AM EST 6:18 PM EST
Astronomical Twilight 5:26 AM EST 6:51 PM EST
Moon 11:22 AM EST (2/7) 1:17 AM EST (2/7)
Length of Visible Light 11h 10m
Length of Day
10h 11m
First Quarter, 59% of the Moon is Illuminated
Feb 7
First Quarter
Feb 14
Full
Feb 22
Last Quarter
Mar 1
New
Mar 8
First Quarter

Hourly Weather History & Observations

Time (EST) Temp. Windchill Dew Point Humidity Pressure Visibility Wind Dir Wind Speed Gust Speed Precip Events Conditions
12:53 AM -2.9 °F - -7.1 °F 82% 30.26 in 10.0 mi Calm Calm - N/A   Partly Cloudy
1:53 AM -8.0 °F - -14.1 °F 75% 30.25 in 10.0 mi Calm Calm - N/A   Clear
2:53 AM -7.1 °F - -11.0 °F 83% 30.23 in 10.0 mi Calm Calm - N/A   Scattered Clouds
3:53 AM -13.0 °F - -15.0 °F 91% 30.24 in 10.0 mi Calm Calm - N/A   Clear
4:53 AM -6.0 °F -14.7 °F -11.0 °F 79% 30.24 in 10.0 mi SW 3.5 mph - N/A   Overcast
5:53 AM -9.0 °F - -11.0 °F 91% 30.25 in 10.0 mi Calm Calm - N/A   Clear
6:53 AM -8.0 °F - -11.9 °F 83% 30.26 in 10.0 mi Calm Calm - N/A   Overcast
7:53 AM -9.9 °F - -14.1 °F 82% 30.28 in 8.0 mi Calm Calm - N/A   Overcast
8:23 AM -2.2 °F -15.6 °F -7.6 °F 78% 30.22 in 8.0 mi South 6.9 mph - 0.00 in   Scattered Clouds
8:53 AM 3.9 °F -5.3 °F 1.9 °F 91% 30.29 in 10.0 mi SE 4.6 mph - 0.00 in   Clear
9:53 AM 10.9 °F -1.8 °F 5.0 °F 77% 30.28 in 10.0 mi South 9.2 mph - N/A   Clear
10:53 AM 18.0 °F 6.9 °F 8.1 °F 65% 30.28 in 10.0 mi South 9.2 mph - N/A   Mostly Cloudy
11:53 AM 19.9 °F 9.3 °F 9.0 °F 62% 30.25 in 10.0 mi SSE 9.2 mph - N/A   Scattered Clouds
12:53 PM 23.0 °F 12.4 °F 7.0 °F 50% 30.22 in 10.0 mi SSW 10.4 mph - N/A   Clear
1:53 PM 23.0 °F 11.1 °F 7.0 °F 50% 30.20 in 10.0 mi South 12.7 mph - N/A   Clear
2:53 PM 23.0 °F 11.7 °F 7.0 °F 50% 30.19 in 10.0 mi SSW 11.5 mph - N/A   Clear
3:53 PM 24.1 °F 12.5 °F 6.1 °F 46% 30.20 in 10.0 mi SW 12.7 mph - N/A   Clear
4:53 PM 23.0 °F 11.7 °F 1.9 °F 40% 30.21 in 10.0 mi WSW 11.5 mph 23.0 mph N/A   Mostly Cloudy
5:53 PM 23.0 °F 10.1 °F 1.9 °F 40% 30.23 in 10.0 mi WSW 15.0 mph 24.2 mph N/A   Mostly Cloudy
6:53 PM 21.0 °F 12.4 °F -0.9 °F 38% 30.26 in 10.0 mi West 6.9 mph - N/A   Overcast
7:53 PM 19.0 °F 13.9 °F -0.9 °F 42% 30.27 in 10.0 mi West 3.5 mph - N/A   Scattered Clouds
8:53 PM 18.0 °F 9.8 °F -0.0 °F 45% 30.26 in 10.0 mi SW 5.8 mph - N/A   Clear
9:53 PM 12.9 °F - -0.0 °F 56% 30.26 in 10.0 mi Calm Calm - N/A   Clear
10:53 PM 8.1 °F -4.3 °F -0.9 °F 67% 30.25 in 10.0 mi SSW 8.1 mph - N/A   Clear
11:53 PM 12.0 °F 4.1 °F -2.0 °F 53% 30.26 in 10.0 mi South 4.6 mph - N/A   Clear